Tacoma Narrows, WA
on Monday, December 17, 2012

Monday
Previous Day Next Day
Daily Summary
 ActualAverageRecord
Temperature
Mean Temperature °F °F  
Max Temperature 46°F 44°F 52°F (1999)
Min Temperature 35°F 36°F 28°F (2005)
Degree Days
Heating Degree Days 24    
Moisture
Dew Point 36°F   
Average Humidity 80    
Maximum Humidity 93    
Minimum Humidity 65    
Precipitation
Precipitation 0.12 in in in ()
Wind
Wind Speed 18 mph   
Max Wind Speed 29 mph   
Max Gust Speed 46 mph   
Visibility 9 miles   
Events Rain   
Averages and records for this station are not official NWS values.
Key: T is trace of precipitation, MM is missing value
Source: NWS Daily Summary
Seasonal Weather Averages
Time(PST)TemperatureDew PointHumidity Pressure Visibility Wind DirectionWind SpeedGust SpeedPrecipitationEvents Conditions
12:16 AM 44.6°F 41.0°F 87% 28.96 in 8.0 miles South 17.3 mph 23.0 mph 0.01 in Rain Light Rain
12:28 AM 44.6°F 41.0°F 87% 28.95 in 10.0 miles South 12.7 mph 20.7 mph 0.01 in Rain Light Rain
12:53 AM 46.0°F 41.0°F 83% 28.94 in 10.0 miles South 12.7 mph 27.6 mph 0.02 in Rain Light Rain
1:05 AM 46.4°F 41.0°F 81% 28.93 in 10.0 miles South 18.4 mph 32.2 mph 0.01 in Rain Light Rain
1:53 AM 46.0°F 41.0°F 83% 28.95 in 10.0 miles South 24.2 mph 35.7 mph 0.02 in Rain Light Rain
2:19 AM 46.4°F 42.8°F 87% 28.97 in 6.0 miles South 24.2 mph 36.8 mph 0.03 in Rain Light Rain
2:38 AM 46.4°F 42.8°F 87% 29.00 in 10.0 miles South 23.0 mph 33.4 mph 0.03 in   Overcast
2:53 AM 46.0°F 42.1°F 86% 29.02 in 3.0 miles SSW 18.4 mph 33.4 mph 0.04 in Rain Light Rain
2:58 AM 46.4°F 42.8°F 87% 29.02 in 4.0 miles South 21.9 mph 32.2 mph 0.01 in Rain Rain
3:11 AM 46.4°F 42.8°F 87% 29.03 in 8.0 miles SSW 21.9 mph 33.4 mph 0.03 in Rain Light Rain
3:53 AM 43.0°F 37.0°F 80% 29.08 in 10.0 miles SW 27.6 mph 42.6 mph 0.04 in   Scattered Clouds
4:12 AM 42.8°F 37.4°F 81% 29.10 in 10.0 miles SSW 28.8 mph 46.0 mph N/A   Mostly Cloudy
4:53 AM 44.1°F 37.0°F 76% 29.17 in 10.0 miles SW 25.3 mph 39.1 mph N/A   Mostly Cloudy
5:53 AM 44.1°F 36.0°F 73% 29.26 in 10.0 miles SW 23.0 mph 38.0 mph N/A   Overcast
6:18 AM 44.6°F 35.6°F 71% 29.28 in 10.0 miles SW 20.7 mph 42.6 mph N/A   Scattered Clouds
6:51 AM 44.6°F 35.6°F 71% 29.34 in 10.0 miles SSW 19.6 mph 41.4 mph N/A   Mostly Cloudy
6:53 AM 45.0°F 35.1°F 68% 29.35 in 10.0 miles SW 20.7 mph 41.4 mph N/A   Mostly Cloudy
7:09 AM 44.6°F 35.6°F 71% 29.37 in 10.0 miles SW 15.0 mph 36.8 mph N/A   Mostly Cloudy
7:53 AM 43.0°F 35.1°F 74% 29.44 in 10.0 miles SW 17.3 mph 33.4 mph N/A   Scattered Clouds
8:53 AM 42.1°F 34.0°F 73% 29.50 in 10.0 miles SW 17.3 mph 34.5 mph N/A   Scattered Clouds
9:53 AM 42.1°F 34.0°F 73% 29.56 in 10.0 miles SSW 13.8 mph 27.6 mph N/A   Partly Cloudy
10:53 AM 43.0°F 34.0°F 71% 29.60 in 10.0 miles SSW 16.1 mph 29.9 mph 0.00 in   Clear
11:31 AM 42.8°F 33.8°F 70% 29.63 in 10.0 miles SW 15.0 mph 32.2 mph N/A   Mostly Cloudy
11:53 AM 42.1°F 33.1°F 70% 29.65 in 10.0 miles SW 12.7 mph 24.2 mph N/A   Mostly Cloudy
12:53 PM 41.0°F 30.9°F 67% 29.68 in 10.0 miles SSW 12.7 mph 20.7 mph N/A   Mostly Cloudy
1:53 PM 42.1°F 30.9°F 65% 29.71 in 10.0 miles SW 16.1 mph 27.6 mph N/A   Partly Cloudy
4:53 PM 37.0°F 30.0°F 76% 29.80 in 10.0 miles SSW 11.5 mph 23.0 mph N/A   Scattered Clouds
5:53 PM 37.0°F 30.9°F 79% 29.83 in 10.0 miles South 16.1 mph 24.2 mph N/A   Scattered Clouds
6:53 PM 37.0°F 30.9°F 79% 29.85 in 10.0 miles SSW 16.1 mph 20.7 mph N/A   Scattered Clouds
7:53 PM 36.0°F 30.9°F 82% 29.86 in 10.0 miles South 17.3 mph 24.2 mph N/A   Clear
8:17 PM 35.6°F 32.0°F 87% 29.86 in 10.0 miles South 13.8 mph 23.0 mph N/A   Partly Cloudy
8:53 PM 36.0°F 32.0°F 86% 29.89 in 10.0 miles SSW 11.5 mph - N/A   Mostly Cloudy
9:53 PM 36.0°F 32.0°F 86% 29.89 in 10.0 miles South 16.1 mph - 0.00 in   Overcast
10:48 PM 35.6°F 33.8°F 93% 29.88 in 10.0 miles South 17.3 mph 25.3 mph 0.00 in Rain Light Freezing Rain
10:53 PM 36.0°F 33.1°F 89% 29.89 in 10.0 miles South 18.4 mph 25.3 mph 0.00 in Rain Light Freezing Rain
11:16 PM 35.6°F 33.8°F 93% 29.88 in 10.0 miles SSW 17.3 mph 26.5 mph 0.00 in   Overcast
11:53 PM 35.1°F 32.0°F 89% 29.90 in 10.0 miles SSW 13.8 mph 21.9 mph 0.00 in   Mostly Cloudy
Moon Phase
Dec. 17 Dec. 20 Dec. 28 Jan. 04 Jan. 11
Sunrise:07:52 AM (PST) Moon Rise:10:46 AM (PST)12/17
Sunset:04:21 PM (PST) Moon Set:10:08 PM (PST)12/17

Copyright © 2014 The Weather Underground, Inc.